Regional Weather Roundup
Issued by NWS Cleveland, OH

Home | Current Version | Previous Version | Graphics & Text | Print | Product List | Glossary On
Versions: 1 2 3 4 5 6 7 8 9 10 11 12 13 14 15 16 17 18 19 20 21 22 23 24 25 26 27 28 29 30 31 32 33 34 35 36 37 38 39 40 41 42 43 44 45 46 47 48 49 50
000
ASUS41 KCLE 280610
RWRCLE
OHIO REGIONAL WEATHER ROUNDUP
NATIONAL WEATHER SERVICE CLEVELAND, OH
100 AM EST WED JAN 28 2015

NOTE: "FAIR" INDICATES FEW OR NO CLOUDS BELOW 12,000 FEET WITH NO
SIGNIFICANT WEATHER AND/OR OBSTRUCTIONS TO VISIBILITY.

OHZ001>008-015>018-024>027-034-035-043-044-280700-
   NORTHWEST OHIO

CITY           SKY/WX    TMP DP  RH WIND       PRES   REMARKS
DEFIANCE       PTCLDY     8   2  76 CALM      30.26R
FINDLAY        PTCLDY     9   5  84 CALM      30.22R FOG
TOLEDO EXPRESS CLEAR     10   6  84 CALM      30.24S
TOLEDO EXEC    CLEAR     13   7  77 NW6       30.25R WCI   4
LIMA           PTCLDY     9   3  77 CALM      30.22S HAZE
$$

OHZ009>014-019>023-028>033-038-089-280700-
   NORTHEAST OHIO

CITY           SKY/WX    TMP DP  RH WIND       PRES   REMARKS
CLE-HOPKINS    PTCLDY    16  12  84 NW3       30.21S
CLE-LAKEFRONT  CLEAR     13  10  88 W5        30.19S WCI   5
CUY CO. ARPT   NOT AVBL
LORAIN-ELYRIA  PTCLDY    10   7  87 NW6       30.20R WCI   0
ASHTABULA      PTCLDY     2  -1  88 CALM      30.16R
AKRON-CANTON   PTCLDY    12   8  84 NW3       30.14S
WOOSTER        PTCLDY     2   0  91 W5        30.17R WCI  -8
MANSFIELD      PTCLDY     8   6  92 W5        30.17R WCI   0
YOUNGSTOWN     PTCLDY     6   3  87 CALM      30.13S
$$

OHZ042-051>053-060>062-070>072-077>081-280700-
  SOUTHWEST OHIO

CITY           SKY/WX    TMP DP  RH WIND       PRES   REMARKS
CINC-COVINGTON CLEAR     20  12  71 NE3       30.24S
CINC-LUNKEN    CLEAR     16  12  84 CALM      30.29R
HAMILTON       CLEAR     12   9  87 CALM      30.27S FOG
DAYTON         PTCLDY    10   7  87 W5        30.23S FOG     WCI   2
WRIGHT-PAT AFB CLEAR      9   6  87 CALM      30.24R
DAYTON GENERAL CLEAR     13  10  88 CALM      30.22S
WILMINGTON     PTCLDY     9   6  88 SW3       30.22S FOG
$$

OHZ036-037-039>041-045>050-054>059-063>069-073>076-082>088-280700-
  CENTRAL AND SOUTHEAST OHIO

CITY           SKY/WX    TMP DP  RH WIND       PRES   REMARKS
COLUMBUS       CLEAR     13   9  84 W3        30.23R
OSU AIRPORT    PTCLDY     7   4  87 W6        30.23R WCI  -3
BOLTON FIELD   CLEAR      9   7  90 W3        30.23R
RICKENBACK AFB CLEAR     10   8  90 SW3       30.24R
NEWARK         CLEAR      6   1  80 CALM      30.21R
MARION         PTCLDY     8   4  83 NW6       30.22R FOG     WCI  -2
LANCASTER      CLEAR      4   0  83 CALM      30.22R
ZANESVILLE     CLOUDY    15   9  76 VRB5      30.20R WCI   8
NEW PHILLY     PTCLDY    17  11  77 CALM      30.18F
$$



USA.gov is the U.S. government's official web portal to all federal, state and local government web resources and services.